Cecil Field, FL

9:06 AM EDT on September 26, 2017 (GMT -0400)
Cecil

Weather History for KVQQ - October, 2011

Change the Weather History Date:

Monday, October 3, 2011

  Actual Average (KNIP) Record (KNIP)
Temperature  
Mean Temperature 61 °F -  
Max Temperature 80 °F 81 °F 91 °F (1998)
Min Temperature 42 °F 69 °F 46 °F (2001)
Degree Days  
Heating Degree Days 4    
Growing Degree Days 11 (Base 50)    
Moisture  
Dew Point 45 °F    
Average Humidity 83    
Maximum Humidity 100    
Minimum Humidity 24    
Precipitation  
Precipitation 0.77 in - - ()
Sea Level Pressure  
Sea Level Pressure 30.11 in    
Wind  
Wind Speed 1 mph (NNW)    
Max Wind Speed 9 mph    
Max Gust Speed -    
Visibility 10 miles    
Events      
Averages and records for this station are not official NWS values.
T = Trace of Precipitation, MM = Missing Value Source: NWS Daily Summary

Daily Weather History Graph

Daily Weather History Graph

Search for Another Location

Airport or City:

Trip Planner

Search our weather history database for the weather conditions in past years. The results will help you decide how hot, cold, wet, or windy it might be!

Date:

Astronomy

Oct. 03, 2011 Rise Set
Actual Time 7:21 AM EDT 7:10 PM EDT
Civil Twilight 6:58 AM EDT 7:34 PM EDT
Nautical Twilight 6:30 AM EDT 8:02 PM EDT
Astronomical Twilight 6:02 AM EDT 8:30 PM EDT
Moon 1:56 PM EDT (10/3) No Moon Set
Length of Visible Light 12h 36m
Length of Day
11h 48m
Waxing Crescent, 45% of the Moon is Illuminated
Oct 3
Waxing Crescent
Oct 3
First Quarter
Oct 11
Full
Oct 19
Last Quarter
Oct 26
New

Hourly Weather History & Observations

Time (EDT) Temp. Windchill Dew Point Humidity Pressure Visibility Wind Dir Wind Speed Gust Speed Precip Events Conditions
12:15 AM 46.4 °F - 46.4 °F 100% 30.08 in 10.0 mi Calm Calm - 0.07 in   Clear
12:35 AM 46.4 °F - 44.6 °F 93% 30.07 in 10.0 mi Calm Calm - 0.07 in   Clear
12:55 AM 46.4 °F - 44.6 °F 93% 30.07 in 10.0 mi Calm Calm - 0.07 in   Clear
1:35 AM 46.4 °F - 44.6 °F 93% 30.08 in 10.0 mi Calm Calm - 0.07 in   Clear
1:55 AM 44.6 °F - 44.6 °F 100% 30.08 in 10.0 mi Calm Calm - 0.07 in   Clear
2:15 AM 44.6 °F - 42.8 °F 93% 30.08 in 10.0 mi Calm Calm - 0.07 in   Clear
2:35 AM 44.6 °F - 44.6 °F 100% 30.08 in 10.0 mi Calm Calm - 0.07 in   Clear
2:55 AM 48.2 °F - 44.6 °F 87% 30.08 in 10.0 mi Calm Calm - 0.07 in   Clear
3:15 AM 46.4 °F - 44.6 °F 93% 30.08 in 10.0 mi Calm Calm - 0.07 in   Clear
3:35 AM 44.6 °F - 44.6 °F 100% 30.08 in 10.0 mi Calm Calm - 0.07 in   Clear
3:55 AM 44.6 °F - 44.6 °F 100% 30.08 in 10.0 mi Calm Calm - 0.07 in   Clear
4:15 AM 44.6 °F - 42.8 °F 93% 30.08 in 10.0 mi Calm Calm - 0.07 in   Clear
4:35 AM 44.6 °F - 44.6 °F 100% 30.08 in 10.0 mi Calm Calm - 0.07 in   Clear
4:55 AM 44.6 °F - 44.6 °F 100% 30.08 in 10.0 mi Calm Calm - 0.07 in   Clear
5:15 AM 44.6 °F - 44.6 °F 100% 30.08 in 10.0 mi Calm Calm - 0.07 in   Clear
5:35 AM 46.4 °F - 44.6 °F 93% 30.09 in 10.0 mi Calm Calm - 0.07 in   Clear
5:55 AM 44.6 °F - 42.8 °F 93% 30.09 in 10.0 mi Calm Calm - 0.07 in   Clear
6:15 AM 42.8 °F - 42.8 °F 100% 30.09 in 10.0 mi Calm Calm - 0.07 in   Clear
6:35 AM 44.6 °F - 44.6 °F 100% 30.10 in 10.0 mi Calm Calm - 0.07 in   Clear
6:50 AM 44.6 °F - 42.8 °F 93% 30.11 in 10.0 mi Calm Calm - N/A   Clear
7:50 AM 44.6 °F 43.1 °F 42.8 °F 93% 30.12 in 10.0 mi North 3.5 mph - N/A   Clear
8:50 AM 51.8 °F - 48.2 °F 88% 30.13 in 10.0 mi NNW 4.6 mph - N/A   Clear
9:50 AM 59.0 °F - 44.6 °F 59% 30.15 in 10.0 mi North 5.8 mph - N/A   Clear
10:50 AM 66.2 °F - 44.6 °F 46% 30.15 in 10.0 mi Calm Calm - N/A   Clear
12:50 PM 75.2 °F - 44.6 °F 34% 30.14 in 10.0 mi North 8.1 mph - N/A   Clear
2:50 PM 78.8 °F - 41.0 °F 26% 30.10 in 10.0 mi WNW 6.9 mph - N/A   Clear
3:50 PM 80.6 °F - 41.0 °F 24% 30.09 in 10.0 mi NW 4.6 mph - N/A   Clear
4:50 PM 80.6 °F - 44.6 °F 28% 30.08 in 10.0 mi NNW 9.2 mph - N/A   Clear
5:50 PM - - - N/A% 30.08 in 10.0 mi North 6.9 mph - N/A   Clear
6:50 PM 71.6 °F - 46.4 °F 41% 30.09 in 10.0 mi North 5.8 mph - N/A   Clear
7:50 PM 59.0 °F - 51.8 °F 77% 30.10 in 10.0 mi Calm Calm - N/A   Clear
8:55 PM 55.4 °F - 48.2 °F 77% 30.13 in 10.0 mi Calm Calm - 0.07 in   Clear
9:15 PM 53.6 °F - 48.2 °F 82% 30.14 in 10.0 mi Calm Calm - 0.07 in   Clear
9:35 PM 53.6 °F - 48.2 °F 82% 30.14 in 10.0 mi Calm Calm - 0.07 in   Clear
9:55 PM 51.8 °F - 48.2 °F 88% 30.14 in 10.0 mi Calm Calm - 0.07 in   Clear
10:15 PM 50.0 °F - 46.4 °F 87% 30.15 in 10.0 mi Calm Calm - 0.07 in   Clear
10:35 PM 50.0 °F - 46.4 °F 87% 30.16 in 10.0 mi Calm Calm - 0.07 in   Clear
10:55 PM 50.0 °F - 46.4 °F 87% 30.16 in 10.0 mi Calm Calm - 0.07 in   Clear
11:15 PM 48.2 °F - 46.4 °F 93% 30.17 in 10.0 mi Calm Calm - 0.07 in   Clear
11:35 PM 48.2 °F - 46.4 °F 93% 30.17 in 10.0 mi Calm Calm - 0.07 in   Clear
11:55 PM 48.2 °F - 46.4 °F 93% 30.17 in 10.0 mi Calm Calm - 0.07 in   Clear